Lexington Weather

Lexington, Massachusetts, USA

70°F
8/17/2022 7:00pm 
  • Lexington Conditions: Overcast
  • Temperature: 69.6°F / 20.9°CColder 0.7°F than last hour.
  • Dew Point: 57.4°FDecreased 2.0°Fsince last hour.
  • Relative Humidity: 65%Decreased 3.0% since last hour.
  • Wind: Calm, 10-min avg: Calm, gust: None
  • Barometer: 29.85 in Steady
  • Visibility: 10 miles
  • Rain Today: 0.00 in
  •   

Regional Weather Roundup
for Boston, MA

        
000
ASUS41 KBOX 112210
RWRBOX

REGIONAL WEATHER ROUNDUP
NATIONAL WEATHER SERVICE BOSTON/NORTON MA
600 PM EDT THU AUG 11 2022

NOTE:  "FAIR" INDICATES FEW OR NO CLOUDS BELOW 12,000 FEET WITH NO 
SIGNIFICANT WEATHER AND/OR OBSTRUCTIONS TO VISIBILITY.

MAZALL-112300-
EASTERN MASSACHUSETTS
  
CITY           SKY/WX    TMP DP  RH WIND       PRES   REMARKS
BOSTON         PTSUNNY   75  68  78 E12       29.84F                  
BEVERLY        PTSUNNY   75  67  76 SE8       29.84S                  
LAWRENCE       CLOUDY    81  61  50 SW7       29.85S                  
BEDFORD        MOSUNNY   81  59  47 SW5       29.82F                  
BLUE HILL      NOT AVBL                                               
NORWOOD        PTSUNNY   80  68  66 S7        29.83F                  
MARSHFIELD     PTSUNNY   72  68  88 SE6       29.85S                  
PLYMOUTH       PTSUNNY   74  68  81 S3        29.86S                  
TAUNTON        PTSUNNY   74  68  81 SE6       29.85S                  
NEW BEDFORD    PTSUNNY   74  69  85 S6        29.86R                  
$$

MAZALL-112300-
CAPE COD AND THE ISLANDS
  
CITY           SKY/WX    TMP DP  RH WIND       PRES   REMARKS
FALMOUTH       PTSUNNY   72  70  94 SE6       29.87R                  
HYANNIS        CLOUDY    70  66  87 SE5       29.86R                  
CHATHAM        PTSUNNY   69  65  86 SE6       29.87F                  
NANTUCKET      CLOUDY    70  67  90 E7        29.87R                  
MARTHAS VNYRD  PTSUNNY   72  69  90 SW3       29.87R                  
$$
 
MAZALL-112300-
CENTRAL AND WESTERN MASSACHUSETTS
  
CITY           SKY/WX    TMP DP  RH WIND       PRES   REMARKS
WORCESTER      MOSUNNY   80  57  45 NW6       29.87F                  
FITCHBURG      MOSUNNY   82  52  35 VRB3      29.84F                  
ORANGE         MOSUNNY   82  56  40 NW6       29.86S                  
SPRINGFIELD    PTSUNNY   84  55  36 NW8       29.80F                  
WESTFIELD      MOSUNNY   84  55  36 NW7       29.83F                  
NORTH ADAMS    MOSUNNY   80  58  46 W8        29.86F                  
PITTSFIELD     MOSUNNY   80  57  45 NW8       29.88S                  
$$
 
RIZALL-112300-
RHODE ISLAND
  
CITY           SKY/WX    TMP DP  RH WIND       PRES   REMARKS
PROVIDENCE     PTSUNNY   76  69  79 S10       29.85F                  
NEWPORT        PTSUNNY   71  67  87 S6        29.87R                  
BLOCK ISLAND   PTSUNNY   72  68  87 S7        29.88S                  
SMITHFIELD     PTSUNNY   77  69  76 VRB5      29.86F                  
WESTERLY       PTSUNNY   74  69  85 S8        29.86S                  
$$
 
CTZALL-112300-
CONNECTICUT
  
CITY           SKY/WX    TMP DP  RH WIND       PRES   REMARKS
BRADLEY INTL   PTSUNNY   85  58  39 NW6       29.83F                  
HARTFORD       MOSUNNY   85  58  39 CALM      29.82F                  
BRIDGEPORT     MOSUNNY   83  61  47 S6        29.84S                  
DANBURY        SUNNY     88  55  32 NW5       29.86S                  
GROTON         PTSUNNY   76  69  79 SE9       29.85S                  
NEW HAVEN      MOSUNNY   83  67  58 S6        29.85S                  
CHESTER        FAIR      81  68  65 S8        29.86S                  
MERIDEN        MOSUNNY   86  55  34 NW3       29.83F                  
WILLIMANTIC    MOSUNNY   84  57  39 W5        29.84F                  
OXFORD         MOSUNNY   82  58  43 CALM      29.88S                  
$$

MEZ002-015-021-024-NHZ003-005-008-011-012-014-VTZ005-008-112300-
NORTHERN NEW ENGLAND
  
CITY           SKY/WX    TMP DP  RH WIND       PRES   REMARKS
PORTLAND ME    PTSUNNY   70  65  84 S9        29.85F                  
BANGOR ME      PTSUNNY   73  62  68 S8        29.85F                  
CONCORD NH     MOSUNNY   81  59  47 E5        29.83F                  
MANCHESTER NH  PTSUNNY   83  55  38 CALM      29.82S                  
NASHUA NH      MOSUNNY   84  56  38 W9        29.83F                  
PORTSMOUTH NH  PTSUNNY   74  64  71 SE8       29.84S                  
JAFFREY NH     MOSUNNY   81  56  42 NW7       29.88F                  
KEENE NH       MOSUNNY   82  58  43 VRB3        N/A                   
BURLINGTON VT  PTSUNNY   73  64  73 CALM      29.87S                  
MT. WASHINGTON FOG       52  52 100 W22G28      N/A  VSB 1/4          
$$

NYZ052-076-112300-
EASTERN NEW YORK
  
CITY           SKY/WX    TMP DP  RH WIND       PRES   REMARKS
ALBANY         MOSUNNY   81  60  48 NW13      29.86R                  
NEW YORK CITY  PTSUNNY   89  54  30 CALM      29.83S                  
$$
 
ANZALL-112300-
MARINE OBSERVATIONS
  
STATION/POSITION TIME  TEMP    WIND        PRES    VSBY  WAVE
                       AIR SEA DIR/SP/G                  HT/PER
                 (UTC) (F)     (DEG/KT/KT) (MB)    (MI)  (FT/S)
BOSTON BUOY      NOT AVBL
BUZZARDS BAY     NOT AVBL
NANTUCKET SOUND  NOT AVBL
MASS BAY-STELLWA NOT AVBL
ISLE OF SHOALS   NOT AVBL
S OF BLOCK IS    NOT AVBL
$$

......................KEY.........................
  SKY/WX - SKY CONDITION/PRESENT WEATHER
  TMP    - TEMPERATURE IN FAHRENHEIT
  DWPT   - DEWPOINT IN FAHRENHEIT
  RH     - RELATIVE HUMIDITY IN PERCENT
  WIND   - DIRECTION AND SPEED IN MPH
  PRES   - MEAN SEA LEVEL PRESSURE IN INCHES OF HG
  WCI    - WIND CHILL INDEX
  VSB    - VISIBILITY IN MILES
  HX     - HEAT INDEX
  TC     - TEMPERATURE IN CELSIUS
  VRB    - VARIABLE WIND DIRECTION
  N/A    - NOT AVAILABLE
  
      

Other recent Regional Weather Roundups

Wed Aug 17, 6:10pm

Wed Aug 17, 5:10pm

Wed Aug 17, 4:10pm

Wed Aug 17, 3:10pm

Wed Aug 17, 2:10pm

Wed Aug 17, 1:10pm

Wed Aug 17, 12:10pm

Wed Aug 17, 11:10am

Wed Aug 17, 10:10am

Wed Aug 17, 9:10am

Wed Aug 17, 8:10am

Wed Aug 17, 7:10am

Wed Aug 17, 6:10am

Wed Aug 17, 5:10am

Wed Aug 17, 4:10am

Wed Aug 17, 3:10am

Wed Aug 17, 2:10am

Wed Aug 17, 1:10am

Wed Aug 17, 12:10am

Tue Aug 16, 11:10pm

Tue Aug 16, 10:10pm

Tue Aug 16, 9:10pm

Tue Aug 16, 8:10pm

Tue Aug 16, 7:10pm

Tue Aug 16, 6:10pm

Tue Aug 16, 5:10pm

Tue Aug 16, 4:10pm

Tue Aug 16, 3:10pm

Tue Aug 16, 2:10pm

Tue Aug 16, 1:10pm

Tue Aug 16, 12:10pm

Tue Aug 16, 11:10am

Tue Aug 16, 10:10am

Tue Aug 16, 9:10am

Tue Aug 16, 8:10am

Tue Aug 16, 7:10am

Tue Aug 16, 6:10am

Tue Aug 16, 5:10am

Tue Aug 16, 4:10am

Tue Aug 16, 3:10am

Tue Aug 16, 2:10am

Tue Aug 16, 1:10am

Tue Aug 16, 12:10am

Mon Aug 15, 11:10pm

Mon Aug 15, 10:10pm

Mon Aug 15, 9:10pm

Mon Aug 15, 8:10pm

Mon Aug 15, 7:10pm

Mon Aug 15, 6:10pm

Mon Aug 15, 5:10pm

Mon Aug 15, 4:10pm

Mon Aug 15, 3:10pm

Mon Aug 15, 2:10pm

Mon Aug 15, 1:10pm

Mon Aug 15, 12:10pm

Mon Aug 15, 11:10am

Mon Aug 15, 10:10am

Mon Aug 15, 9:10am

Mon Aug 15, 8:10am

Mon Aug 15, 7:10am

Mon Aug 15, 6:10am

Mon Aug 15, 5:10am

Mon Aug 15, 4:10am

Mon Aug 15, 3:10am

Mon Aug 15, 2:10am

Mon Aug 15, 1:10am

Mon Aug 15, 12:10am

Sun Aug 14, 11:10pm

Sun Aug 14, 10:10pm

Sun Aug 14, 9:10pm

Sun Aug 14, 8:10pm

Sun Aug 14, 7:10pm

Sun Aug 14, 6:10pm

Sun Aug 14, 5:10pm

Sun Aug 14, 4:10pm

Sun Aug 14, 3:10pm

Sun Aug 14, 2:10pm

Sun Aug 14, 1:10pm

Sun Aug 14, 12:10pm

Sun Aug 14, 11:10am

Sun Aug 14, 10:10am

Sun Aug 14, 9:10am

Sun Aug 14, 8:10am

Sun Aug 14, 7:10am

Sun Aug 14, 6:10am

Sun Aug 14, 5:10am

Sun Aug 14, 4:10am

Sun Aug 14, 3:10am

Sun Aug 14, 2:10am

Sun Aug 14, 1:10am

Sun Aug 14, 12:10am

Sat Aug 13, 11:10pm

Sat Aug 13, 10:10pm

Sat Aug 13, 9:10pm

Sat Aug 13, 8:10pm

Sat Aug 13, 7:10pm

Sat Aug 13, 6:10pm

Sat Aug 13, 5:10pm

Sat Aug 13, 4:10pm

Sat Aug 13, 3:10pm

Sat Aug 13, 2:10pm

Sat Aug 13, 1:10pm

Sat Aug 13, 12:10pm

Sat Aug 13, 11:10am

Sat Aug 13, 10:10am

Sat Aug 13, 9:10am

Sat Aug 13, 8:10am

Sat Aug 13, 7:10am

Sat Aug 13, 6:10am

Sat Aug 13, 5:10am

Sat Aug 13, 4:10am

Sat Aug 13, 3:10am

Sat Aug 13, 2:10am

Sat Aug 13, 1:10am

Sat Aug 13, 12:10am

Fri Aug 12, 11:10pm

Fri Aug 12, 10:10pm

Fri Aug 12, 9:10pm

Fri Aug 12, 8:10pm

Fri Aug 12, 7:10pm

Fri Aug 12, 6:10pm

Fri Aug 12, 5:10pm

Fri Aug 12, 4:10pm

Fri Aug 12, 3:10pm

Fri Aug 12, 2:10pm

Fri Aug 12, 1:10pm

Fri Aug 12, 12:10pm

Fri Aug 12, 11:10am

Fri Aug 12, 10:10am

Fri Aug 12, 9:10am

Fri Aug 12, 8:10am

Fri Aug 12, 7:10am

Fri Aug 12, 6:10am

Fri Aug 12, 5:10am

Fri Aug 12, 4:10am

Fri Aug 12, 3:10am

Fri Aug 12, 2:10am

Fri Aug 12, 1:10am

Fri Aug 12, 12:10am

Thu Aug 11, 11:10pm

Thu Aug 11, 10:10pm

Thu Aug 11, 9:10pm

Thu Aug 11, 8:10pm

Thu Aug 11, 7:10pm

Thu Aug 11, 5:10pm

Thu Aug 11, 4:10pm

Thu Aug 11, 3:10pm

Thu Aug 11, 2:10pm

Thu Aug 11, 1:10pm

Thu Aug 11, 12:10pm

Thu Aug 11, 11:10am

Thu Aug 11, 10:10am

Thu Aug 11, 9:10am

Thu Aug 11, 8:10am

Thu Aug 11, 7:10am

Thu Aug 11, 6:10am

Thu Aug 11, 5:10am

Thu Aug 11, 4:10am

Thu Aug 11, 3:10am

Thu Aug 11, 2:10am

Thu Aug 11, 1:10am

Thu Aug 11, 12:10am

Wed Aug 10, 11:10pm

Wed Aug 10, 10:10pm

Wed Aug 10, 9:10pm

Wed Aug 10, 8:10pm

Wed Aug 10, 7:10pm

Meta data:

ID: 7b2789db-8050-49e9-a0bd-16be6dfd9047
Link: https://api.weather.gov/products/7b2789db-8050-49e9-a0bd-16be6dfd9047